OneWeb SL0112

operational
NORAD ID: 48051 Int'l Des: 2021-025 Owner: ONEWEBN Country: UK Constellation: oneweb
LEOCIRCULARPOLARONEWEB_TYPE

关于 OneWeb SL0112

正在加载描述...

实时位置

正在加载3D地球...

即将过境

高度历史

Altitude vs Time

uPlot chart will show altitude changes over time

两行轨道根数

1 48051U 21025K 26035.10361016 -.00000128 00000-0 -38481-3 0 9992
2 48051 87.9037 346.6510 0001665 88.3634 271.7686 13.13470223236126
Epoch: Feb 4, 2026 • Age: 9 hours

当前状态

高度 1229.6 km
速度 7.24 km/s
星下点 -48.73°S, 38.85°E
发射日期 Mar 25, 2021
运行时间 4.8 years
类型 internet

技术详情

分类 Payload
质量 148.00 kg
干质量 140.00 kg
总质量 148.00 kg
长度 1.30 m
直径 1.00 m
跨度 5.00 m
形状 Trapezoid+2 pan
制造商 ONEWUS
平台类型 ARROW
阶段状态 In Orbit
所有者/国家 ONEWEBN/UK

大型星座

Loading constellations...